Time,TemperatureF,DewpointF,PressureIn,WindDirection,WindDirectionDegrees,WindSpeedMPH,WindSpeedGustMPH,Humidity,HourlyPrecipIn,Conditions,Clouds,dailyrainin,SoftwareType,DateUTC
2013-03-12 00:00:00,66.9,60.5,29.82,SSW,206,0.0,0.0,80,0.00,,---,0.00,VWS V14.01,2013-03-12 04:00:00,
2013-03-12 00:01:00,66.9,60.5,29.82,SSW,206,0.0,0.0,80,0.00,,---,0.00,VWS V14.01,2013-03-12 04:01:00,
2013-03-12 00:06:00,66.8,60.4,29.82,SSW,206,0.0,0.0,80,0.00,,---,0.00,VWS V14.01,2013-03-12 04:06:00,
2013-03-12 00:11:00,66.6,60.2,29.82,SSW,206,0.0,0.0,80,0.00,,---,0.00,VWS V14.01,2013-03-12 04:11:00,
2013-03-12 00:16:00,66.8,60.4,29.80,SSW,206,0.0,0.0,80,0.00,,---,0.00,VWS V14.01,2013-03-12 04:16:00,
2013-03-12 00:22:00,66.8,60.1,29.80,SSW,206,0.0,0.0,79,0.00,,---,0.00,VWS V14.01,2013-03-12 04:22:00,
2013-03-12 00:27:00,66.8,60.1,29.80,SSW,206,0.0,0.0,79,0.00,,---,0.00,VWS V14.01,2013-03-12 04:27:00,
2013-03-12 00:30:00,66.8,60.1,29.81,SSW,206,0.0,0.0,79,0.00,,---,0.00,VWS V14.01,2013-03-12 04:30:00,
2013-03-12 00:32:00,66.8,60.4,29.81,SSW,206,0.0,0.0,80,0.00,,---,0.00,VWS V14.01,2013-03-12 04:32:00,
2013-03-12 00:37:00,66.8,60.4,29.81,SSW,206,0.0,0.0,80,0.00,,---,0.00,VWS V14.01,2013-03-12 04:37:00,
2013-03-12 00:42:00,66.6,60.2,29.81,SSW,206,0.0,0.0,80,0.00,,---,0.00,VWS V14.01,2013-03-12 04:42:00,
2013-03-12 00:47:00,66.6,60.2,29.81,SSW,206,0.0,0.0,80,0.00,,---,0.00,VWS V14.01,2013-03-12 04:47:00,
2013-03-12 00:52:00,66.6,60.2,29.81,SSW,206,0.0,0.0,80,0.00,,---,0.00,VWS V14.01,2013-03-12 04:52:00,
2013-03-12 00:57:00,66.6,60.2,29.81,SSW,206,0.0,0.0,80,0.00,,---,0.00,VWS V14.01,2013-03-12 04:57:00,
2013-03-12 01:00:00,66.6,60.2,29.81,SSW,206,0.0,0.0,80,0.00,,---,0.00,VWS V14.01,2013-03-12 05:00:00,
2013-03-12 01:02:00,66.6,60.2,29.81,SSW,206,0.0,0.0,80,0.00,,---,0.00,VWS V14.01,2013-03-12 05:02:00,
2013-03-12 01:07:00,66.4,60.0,29.81,SSW,206,0.0,0.0,80,0.00,,---,0.00,VWS V14.01,2013-03-12 05:07:00,
2013-03-12 01:12:00,66.6,60.2,29.81,SSW,206,0.0,0.0,80,0.00,,---,0.00,VWS V14.01,2013-03-12 05:12:00,
2013-03-12 01:17:00,66.6,59.9,29.81,SSW,206,0.0,0.0,79,0.00,,---,0.00,VWS V14.01,2013-03-12 05:17:00,
2013-03-12 01:22:00,66.8,59.7,29.81,SSW,206,0.0,0.0,78,0.00,,---,0.00,VWS V14.01,2013-03-12 05:22:00,
2013-03-12 01:27:00,66.9,59.8,29.81,SSW,206,0.0,0.0,78,0.00,,---,0.00,VWS V14.01,2013-03-12 05:27:00,
2013-03-12 01:30:00,66.9,60.2,29.81,SSW,206,0.0,0.0,79,0.00,,---,0.00,VWS V14.01,2013-03-12 05:30:00,
2013-03-12 01:32:00,66.9,59.8,29.81,SSW,206,0.0,0.0,78,0.00,,---,0.00,VWS V14.01,2013-03-12 05:32:00,
2013-03-12 01:37:00,66.8,59.7,29.81,SSW,206,0.0,0.0,78,0.00,,---,0.00,VWS V14.01,2013-03-12 05:37:00,
2013-03-12 01:43:00,66.8,60.1,29.81,SSW,206,0.0,0.0,79,0.00,,---,0.00,VWS V14.01,2013-03-12 05:43:00,
2013-03-12 01:48:00,66.8,60.1,29.80,SSW,206,0.0,0.0,79,0.00,,---,0.00,VWS V14.01,2013-03-12 05:48:00,
2013-03-12 01:53:00,66.6,59.9,29.80,SSW,206,0.0,0.0,79,0.00,,---,0.00,VWS V14.01,2013-03-12 05:53:00,
2013-03-12 01:58:00,66.4,60.0,29.80,SSW,206,0.0,0.0,80,0.00,,---,0.00,VWS V14.01,2013-03-12 05:58:00,
2013-03-12 02:00:00,66.4,60.0,29.80,SSW,206,0.0,0.0,80,0.00,,---,0.00,VWS V14.01,2013-03-12 06:00:00,
2013-03-12 02:03:00,66.4,60.0,29.80,SSW,206,0.0,0.0,80,0.00,,---,0.00,VWS V14.01,2013-03-12 06:03:00,
2013-03-12 02:08:00,66.4,59.7,29.80,SSW,206,0.0,0.0,79,0.00,,---,0.00,VWS V14.01,2013-03-12 06:08:00,
2013-03-12 02:13:00,66.4,59.7,29.80,SSW,206,0.0,0.0,79,0.00,,---,0.00,VWS V14.01,2013-03-12 06:13:00,
2013-03-12 02:18:00,66.4,59.7,29.80,SSW,206,0.0,0.0,79,0.00,,---,0.00,VWS V14.01,2013-03-12 06:18:00,
2013-03-12 02:23:00,66.3,59.6,29.80,SSW,206,0.0,0.0,79,0.00,,---,0.00,VWS V14.01,2013-03-12 06:23:00,
2013-03-12 02:28:00,66.3,60.0,29.80,SSW,206,0.0,0.0,80,0.00,,---,0.00,VWS V14.01,2013-03-12 06:28:00,
2013-03-12 02:30:00,66.1,59.8,29.80,SSW,206,0.0,0.0,80,0.00,,---,0.00,VWS V14.01,2013-03-12 06:30:00,
2013-03-12 02:33:00,66.1,59.8,29.80,SSW,206,0.0,0.0,80,0.00,,---,0.00,VWS V14.01,2013-03-12 06:33:00,
2013-03-12 02:38:00,66.1,59.8,29.80,SSW,206,0.0,0.0,80,0.00,,---,0.00,VWS V14.01,2013-03-12 06:38:00,
2013-03-12 02:43:00,66.3,59.6,29.80,SSW,206,0.0,2.0,79,0.00,,---,0.00,VWS V14.01,2013-03-12 06:43:00,
2013-03-12 02:49:00,66.3,59.6,29.81,SSW,206,0.0,2.0,79,0.00,,---,0.00,VWS V14.01,2013-03-12 06:49:00,
2013-03-12 02:54:00,66.3,59.6,29.81,WSW,240,0.0,2.0,79,0.00,,---,0.00,VWS V14.01,2013-03-12 06:54:00,
2013-03-12 02:59:00,66.4,59.7,29.81,SE,136,0.0,3.0,79,0.00,,---,0.00,VWS V14.01,2013-03-12 06:59:00,
2013-03-12 03:00:00,66.4,59.7,29.79,SE,136,0.0,3.0,79,0.00,,---,0.00,VWS V14.01,2013-03-12 07:00:00,
2013-03-12 03:04:00,66.6,59.9,29.79,SE,136,0.0,0.0,79,0.00,,---,0.00,VWS V14.01,2013-03-12 07:04:00,
2013-03-12 03:09:00,66.8,59.7,29.79,SSW,212,0.0,2.0,78,0.00,,---,0.00,VWS V14.01,2013-03-12 07:09:00,
2013-03-12 03:14:00,66.9,60.5,29.79,WSW,246,0.0,3.0,80,0.00,,---,0.00,VWS V14.01,2013-03-12 07:14:00,
2013-03-12 03:19:00,66.8,60.8,29.78,WSW,244,0.0,3.0,81,0.00,,---,0.00,VWS V14.01,2013-03-12 07:19:00,
2013-03-12 03:24:00,66.6,60.9,29.78,WSW,244,0.0,3.0,82,0.00,,---,0.00,VWS V14.01,2013-03-12 07:24:00,
2013-03-12 03:29:00,66.4,61.1,29.77,SW,217,0.0,3.0,83,0.00,,---,0.00,VWS V14.01,2013-03-12 07:29:00,
2013-03-12 03:30:00,66.3,61.0,29.77,SW,217,0.0,3.0,83,0.00,,---,0.00,VWS V14.01,2013-03-12 07:30:00,
2013-03-12 03:34:00,66.3,61.3,29.77,SW,215,0.0,4.0,84,0.00,,---,0.00,VWS V14.01,2013-03-12 07:34:00,
2013-03-12 03:39:00,66.1,61.1,29.77,SW,234,0.0,4.0,84,0.00,,---,0.00,VWS V14.01,2013-03-12 07:39:00,
2013-03-12 03:44:00,66.1,60.8,29.77,SSE,155,0.0,4.0,83,0.00,,---,0.00,VWS V14.01,2013-03-12 07:44:00,
2013-03-12 03:49:00,66.1,60.8,29.77,WSW,247,0.0,4.0,83,0.00,,---,0.00,VWS V14.01,2013-03-12 07:49:00,
2013-03-12 03:54:00,66.3,60.7,29.77,SW,233,0.0,4.0,82,0.00,,---,0.00,VWS V14.01,2013-03-12 07:54:00,
2013-03-12 03:59:00,66.4,61.1,29.77,SW,220,0.0,4.0,83,0.00,,---,0.00,VWS V14.01,2013-03-12 07:59:00,
2013-03-12 04:00:00,66.4,61.1,29.77,SW,220,0.0,4.0,83,0.00,,---,0.00,VWS V14.01,2013-03-12 08:00:00,
2013-03-12 04:04:00,66.4,60.7,29.77,SW,230,0.0,1.0,82,0.00,,---,0.00,VWS V14.01,2013-03-12 08:04:00,
2013-03-12 04:09:00,66.4,60.7,29.77,WSW,248,0.0,5.0,82,0.00,,---,0.00,VWS V14.01,2013-03-12 08:09:00,
2013-03-12 04:15:00,66.4,60.7,29.76,West,274,0.0,5.0,82,0.00,,---,0.00,VWS V14.01,2013-03-12 08:15:00,
2013-03-12 04:20:00,66.6,60.9,29.76,ESE,123,0.0,5.0,82,0.00,,---,0.00,VWS V14.01,2013-03-12 08:20:00,
2013-03-12 04:25:00,66.8,60.8,29.76,SW,220,0.0,5.0,81,0.00,,---,0.00,VWS V14.01,2013-03-12 08:25:00,
2013-03-12 04:30:00,66.8,60.8,29.75,ENE,58,0.0,5.0,81,0.00,,---,0.00,VWS V14.01,2013-03-12 08:30:00,
2013-03-12 04:35:00,66.8,60.8,29.75,ENE,64,0.0,0.0,81,0.00,,---,0.00,VWS V14.01,2013-03-12 08:35:00,
2013-03-12 04:40:00,66.6,60.9,29.75,SSE,164,0.0,3.0,82,0.00,,---,0.00,VWS V14.01,2013-03-12 08:40:00,
2013-03-12 04:45:00,66.6,60.9,29.75,WSW,251,0.0,3.0,82,0.00,,---,0.00,VWS V14.01,2013-03-12 08:45:00,
2013-03-12 04:50:00,66.6,60.9,29.75,SW,216,5.0,6.0,82,0.00,,---,0.00,VWS V14.01,2013-03-12 08:50:00,
2013-03-12 04:55:00,66.8,60.8,29.75,SSE,168,0.0,6.0,81,0.00,,---,0.00,VWS V14.01,2013-03-12 08:55:00,
2013-03-12 05:00:00,66.8,60.8,29.75,SE,138,2.0,2.0,81,0.00,,---,0.00,VWS V14.01,2013-03-12 09:00:00,
2013-03-12 05:05:00,66.9,60.5,29.75,WNW,295,5.0,6.0,80,0.00,,---,0.00,VWS V14.01,2013-03-12 09:05:00,
2013-03-12 05:10:00,67.1,60.7,29.75,SSE,154,0.0,6.0,80,0.00,,---,0.00,VWS V14.01,2013-03-12 09:10:00,
2013-03-12 05:15:00,67.1,60.7,29.75,SW,215,0.0,6.0,80,0.00,,---,0.00,VWS V14.01,2013-03-12 09:15:00,
2013-03-12 05:20:00,67.3,60.9,29.75,SSE,150,0.0,8.0,80,0.00,,---,0.00,VWS V14.01,2013-03-12 09:20:00,
2013-03-12 05:25:00,67.3,60.9,29.75,West,271,0.0,8.0,80,0.00,,---,0.00,VWS V14.01,2013-03-12 09:25:00,
2013-03-12 05:30:00,67.3,60.9,29.75,SW,217,0.0,0.0,80,0.00,,---,0.00,VWS V14.01,2013-03-12 09:30:00,
2013-03-12 05:35:00,67.3,60.9,29.75,SW,219,0.0,3.0,80,0.00,,---,0.00,VWS V14.01,2013-03-12 09:35:00,
2013-03-12 05:40:00,67.3,60.9,29.75,SSW,199,0.0,5.0,80,0.00,,---,0.00,VWS V14.01,2013-03-12 09:40:00,
2013-03-12 05:46:00,67.3,60.9,29.75,SE,130,0.0,5.0,80,0.00,,---,0.00,VWS V14.01,2013-03-12 09:46:00,
2013-03-12 05:51:00,67.3,60.9,29.75,SE,143,0.0,6.0,80,0.00,,---,0.00,VWS V14.01,2013-03-12 09:51:00,
2013-03-12 05:56:00,67.3,60.9,29.75,SSW,212,0.0,6.0,80,0.00,,---,0.00,VWS V14.01,2013-03-12 09:56:00,
2013-03-12 06:00:00,67.1,61.1,29.76,SW,233,0.0,6.0,81,0.00,,---,0.00,VWS V14.01,2013-03-12 10:00:00,
2013-03-12 06:01:00,67.1,61.1,29.76,WSW,246,0.0,2.0,81,0.00,,---,0.00,VWS V14.01,2013-03-12 10:01:00,
2013-03-12 06:06:00,66.9,60.9,29.76,West,267,0.0,5.0,81,0.00,,---,0.00,VWS V14.01,2013-03-12 10:06:00,
2013-03-12 06:11:00,66.8,61.1,29.76,West,260,0.0,5.0,82,0.00,,---,0.00,VWS V14.01,2013-03-12 10:11:00,
2013-03-12 06:17:00,66.6,61.3,29.76,WSW,248,0.0,5.0,83,0.00,,---,0.00,VWS V14.01,2013-03-12 10:17:00,
2013-03-12 06:22:00,66.4,61.1,29.76,WSW,248,0.0,5.0,83,0.00,,---,0.00,VWS V14.01,2013-03-12 10:22:00,
2013-03-12 06:27:00,66.3,61.3,29.76,SW,230,0.0,5.0,84,0.00,,---,0.00,VWS V14.01,2013-03-12 10:27:00,
2013-03-12 06:30:00,66.3,61.3,29.77,SE,130,0.0,5.0,84,0.00,,---,0.00,VWS V14.01,2013-03-12 10:30:00,
2013-03-12 06:32:00,66.3,61.3,29.77,SW,220,0.0,0.0,84,0.00,,---,0.00,VWS V14.01,2013-03-12 10:32:00,
2013-03-12 06:37:00,66.1,61.1,29.77,West,268,0.0,3.0,84,0.00,,---,0.00,VWS V14.01,2013-03-12 10:37:00,
2013-03-12 06:42:00,66.3,61.3,29.77,WNW,291,0.0,4.0,84,0.01,,---,0.01,VWS V14.01,2013-03-12 10:42:00,
2013-03-12 06:47:00,66.1,61.8,29.77,West,268,0.0,5.0,86,0.02,,---,0.02,VWS V14.01,2013-03-12 10:47:00,
2013-03-12 06:52:00,66.0,62.0,29.77,WSW,244,0.0,5.0,87,0.03,,---,0.03,VWS V14.01,2013-03-12 10:52:00,
2013-03-12 06:58:00,65.6,62.0,29.77,WSW,251,0.0,5.0,88,0.03,,---,0.03,VWS V14.01,2013-03-12 10:58:00,
2013-03-12 07:00:00,65.5,62.2,29.78,WSW,251,0.0,5.0,89,0.03,,---,0.03,VWS V14.01,2013-03-12 11:00:00,
2013-03-12 07:03:00,65.3,62.0,29.78,WSW,251,0.0,0.0,89,0.03,,---,0.03,VWS V14.01,2013-03-12 11:03:00,
2013-03-12 07:08:00,65.2,61.9,29.78,SW,226,0.0,4.0,89,0.03,,---,0.03,VWS V14.01,2013-03-12 11:08:00,
2013-03-12 07:13:00,65.0,62.0,29.78,SW,226,0.0,4.0,90,0.03,,---,0.03,VWS V14.01,2013-03-12 11:13:00,
2013-03-12 07:18:00,65.0,62.0,29.78,SW,220,0.0,4.0,90,0.03,,---,0.03,VWS V14.01,2013-03-12 11:18:00,
2013-03-12 07:23:00,65.0,62.3,29.78,SE,138,0.0,4.0,91,0.03,,---,0.03,VWS V14.01,2013-03-12 11:23:00,
2013-03-12 07:28:00,65.0,62.3,29.78,SW,229,0.0,4.0,91,0.04,,---,0.04,VWS V14.01,2013-03-12 11:28:00,
2013-03-12 07:30:00,64.8,62.1,29.78,SW,227,0.0,4.0,91,0.04,,---,0.04,VWS V14.01,2013-03-12 11:30:00,
2013-03-12 07:33:00,64.8,62.1,29.78,ESE,104,0.0,0.0,91,0.04,,---,0.04,VWS V14.01,2013-03-12 11:33:00,
2013-03-12 07:38:00,64.7,62.3,29.78,ESE,107,0.0,0.0,92,0.04,,---,0.04,VWS V14.01,2013-03-12 11:38:00,
2013-03-12 07:43:00,64.7,62.3,29.78,SW,230,0.0,0.0,92,0.04,,---,0.04,VWS V14.01,2013-03-12 11:43:00,
2013-03-12 07:49:00,64.7,62.3,29.77,SW,230,0.0,0.0,92,0.04,,---,0.04,VWS V14.01,2013-03-12 11:49:00,
2013-03-12 07:54:00,64.7,62.3,29.77,SW,230,0.0,0.0,92,0.04,,---,0.04,VWS V14.01,2013-03-12 11:54:00,
2013-03-12 07:59:00,64.5,62.4,29.77,SW,230,0.0,0.0,93,0.04,,---,0.04,VWS V14.01,2013-03-12 11:59:00,
2013-03-12 08:00:00,64.5,62.4,29.78,SW,230,0.0,0.0,93,0.05,,---,0.05,VWS V14.01,2013-03-12 12:00:00,
2013-03-12 08:04:00,64.5,62.4,29.78,WSW,239,2.0,3.0,93,0.02,,---,0.05,VWS V14.01,2013-03-12 12:04:00,
2013-03-12 08:09:00,64.5,62.4,29.78,SSW,213,0.0,3.0,93,0.02,,---,0.05,VWS V14.01,2013-03-12 12:09:00,
2013-03-12 08:14:00,64.5,62.4,29.78,WSW,241,0.0,6.0,93,0.02,,---,0.05,VWS V14.01,2013-03-12 12:14:00,
2013-03-12 08:19:00,64.5,62.4,29.78,SW,220,0.0,6.0,93,0.02,,---,0.05,VWS V14.01,2013-03-12 12:19:00,
2013-03-12 08:24:00,64.5,62.4,29.78,SW,230,0.0,6.0,93,0.02,,---,0.05,VWS V14.01,2013-03-12 12:24:00,
2013-03-12 08:29:00,64.5,62.4,29.80,SW,236,0.0,6.0,93,0.02,,---,0.05,VWS V14.01,2013-03-12 12:29:00,
2013-03-12 08:30:00,64.5,62.4,29.80,SW,236,0.0,6.0,93,0.02,,---,0.05,VWS V14.01,2013-03-12 12:30:00,
2013-03-12 08:34:00,64.5,62.7,29.80,SSE,160,0.0,5.0,94,0.01,,---,0.05,VWS V14.01,2013-03-12 12:34:00,
2013-03-12 08:39:00,64.5,62.7,29.80,SW,229,0.0,5.0,94,0.01,,---,0.05,VWS V14.01,2013-03-12 12:39:00,
2013-03-12 08:44:00,64.5,62.7,29.80,SW,229,0.0,5.0,94,0.02,,---,0.06,VWS V14.01,2013-03-12 12:44:00,
2013-03-12 08:49:00,64.7,62.9,29.80,NW,322,0.0,5.0,94,0.02,,---,0.06,VWS V14.01,2013-03-12 12:49:00,
2013-03-12 08:55:00,64.7,62.9,29.80,WSW,240,0.0,6.0,94,0.02,,---,0.06,VWS V14.01,2013-03-12 12:55:00,
2013-03-12 09:00:00,64.7,63.2,29.80,SSE,150,0.0,6.0,95,0.02,,---,0.06,VWS V14.01,2013-03-12 13:00:00,
2013-03-12 09:05:00,64.8,63.3,29.80,SSE,155,0.0,0.0,95,0.01,,---,0.06,VWS V14.01,2013-03-12 13:05:00,
2013-03-12 09:10:00,64.8,63.3,29.80,SW,227,2.0,2.0,95,0.01,,---,0.06,VWS V14.01,2013-03-12 13:10:00,
2013-03-12 09:15:00,64.8,63.3,29.80,SSE,152,0.0,2.0,95,0.01,,---,0.06,VWS V14.01,2013-03-12 13:15:00,
2013-03-12 09:20:00,64.8,63.3,29.80,SSW,209,0.0,5.0,95,0.01,,---,0.06,VWS V14.01,2013-03-12 13:20:00,
2013-03-12 09:25:00,65.0,63.5,29.80,WSW,246,0.0,10.0,95,0.01,,---,0.06,VWS V14.01,2013-03-12 13:25:00,
2013-03-12 09:30:00,65.0,63.5,29.80,WSW,239,0.0,10.0,95,0.01,,---,0.06,VWS V14.01,2013-03-12 13:30:00,
2013-03-12 09:35:00,65.0,63.5,29.80,SSE,168,0.0,5.0,95,0.01,,---,0.06,VWS V14.01,2013-03-12 13:35:00,
2013-03-12 09:40:00,65.0,63.5,29.80,WSW,257,0.0,5.0,95,0.01,,---,0.06,VWS V14.01,2013-03-12 13:40:00,
2013-03-12 09:45:00,65.0,63.5,29.80,South,171,0.0,6.0,95,0.01,,---,0.06,VWS V14.01,2013-03-12 13:45:00,
2013-03-12 09:50:00,65.0,63.5,29.80,SSW,206,0.0,6.0,95,0.02,,---,0.07,VWS V14.01,2013-03-12 13:50:00,
2013-03-12 09:55:00,65.2,63.7,29.80,SSE,151,0.0,6.0,95,0.02,,---,0.07,VWS V14.01,2013-03-12 13:55:00,
2013-03-12 10:00:00,65.2,64.0,29.80,SW,236,0.0,1.0,96,0.01,,---,0.07,VWS V14.01,2013-03-12 14:00:00,
2013-03-12 10:06:00,65.3,64.1,29.80,SW,223,0.0,8.0,96,0.01,,---,0.07,VWS V14.01,2013-03-12 14:06:00,
2013-03-12 10:11:00,65.3,64.1,29.80,WNW,284,0.0,8.0,96,0.01,,---,0.07,VWS V14.01,2013-03-12 14:11:00,
2013-03-12 10:16:00,65.5,64.3,29.80,SW,216,0.0,8.0,96,0.01,,---,0.07,VWS V14.01,2013-03-12 14:16:00,
2013-03-12 10:21:00,65.5,64.3,29.80,SW,234,0.0,8.0,96,0.01,,---,0.07,VWS V14.01,2013-03-12 14:21:00,
2013-03-12 10:26:00,65.6,64.4,29.80,West,281,0.0,8.0,96,0.01,,---,0.07,VWS V14.01,2013-03-12 14:26:00,
2013-03-12 10:30:00,65.8,64.6,29.80,South,172,0.0,8.0,96,0.01,,---,0.07,VWS V14.01,2013-03-12 14:30:00,
2013-03-12 10:31:00,65.8,64.6,29.80,South,172,0.0,0.0,96,0.01,,---,0.07,VWS V14.01,2013-03-12 14:31:00,
2013-03-12 10:36:00,66.0,64.8,29.80,SSE,164,0.0,3.0,96,0.01,,---,0.07,VWS V14.01,2013-03-12 14:36:00,
2013-03-12 10:41:00,66.0,64.8,29.80,SW,229,0.0,3.0,96,0.01,,---,0.07,VWS V14.01,2013-03-12 14:41:00,
2013-03-12 10:46:00,66.3,65.1,29.81,SW,219,0.0,3.0,96,0.01,,---,0.07,VWS V14.01,2013-03-12 14:46:00,
2013-03-12 10:52:00,66.3,65.1,29.81,SSW,205,0.0,3.0,96,0.01,,---,0.07,VWS V14.01,2013-03-12 14:52:00,
2013-03-12 10:57:00,66.4,65.2,29.81,SSW,196,0.0,4.0,96,0.01,,---,0.07,VWS V14.01,2013-03-12 14:57:00,
2013-03-12 11:00:00,66.4,65.2,29.81,SW,236,1.0,4.0,96,0.01,,---,0.07,VWS V14.01,2013-03-12 15:00:00,
2013-03-12 11:02:00,66.6,65.4,29.81,South,189,0.0,1.0,96,0.00,,---,0.07,VWS V14.01,2013-03-12 15:02:00,
2013-03-12 11:07:00,66.6,65.4,29.81,SW,223,1.0,4.0,96,0.00,,---,0.07,VWS V14.01,2013-03-12 15:07:00,
2013-03-12 11:12:00,66.8,65.6,29.81,SSE,148,0.0,13.0,96,0.00,,---,0.07,VWS V14.01,2013-03-12 15:12:00,
2013-03-12 11:17:00,66.9,65.7,29.81,South,185,0.0,13.0,96,0.00,,---,0.07,VWS V14.01,2013-03-12 15:17:00,
2013-03-12 11:23:00,66.9,65.7,29.81,SW,232,0.0,13.0,96,0.00,,---,0.07,VWS V14.01,2013-03-12 15:23:00,
2013-03-12 11:28:00,66.9,65.7,29.81,SW,216,0.0,13.0,96,0.00,,---,0.07,VWS V14.01,2013-03-12 15:28:00,
2013-03-12 11:30:00,67.1,65.9,29.81,SW,216,0.0,13.0,96,0.00,,---,0.07,VWS V14.01,2013-03-12 15:30:00,
2013-03-12 11:33:00,67.1,65.9,29.81,SSW,198,0.0,3.0,96,0.00,,---,0.07,VWS V14.01,2013-03-12 15:33:00,
2013-03-12 11:38:00,67.1,65.9,29.81,South,185,0.0,6.0,96,0.00,,---,0.07,VWS V14.01,2013-03-12 15:38:00,
2013-03-12 11:43:00,67.1,65.9,29.81,SSW,192,0.0,6.0,96,0.00,,---,0.07,VWS V14.01,2013-03-12 15:43:00,
2013-03-12 11:48:00,67.1,65.6,29.81,West,267,0.0,6.0,95,0.00,,---,0.07,VWS V14.01,2013-03-12 15:48:00,
2013-03-12 11:53:00,67.3,65.8,29.81,SSW,196,0.0,7.0,95,0.00,,---,0.07,VWS V14.01,2013-03-12 15:53:00,
2013-03-12 11:58:00,67.3,65.8,29.81,WSW,237,0.0,7.0,95,0.00,,---,0.07,VWS V14.01,2013-03-12 15:58:00,
2013-03-12 12:00:00,67.4,65.9,29.81,SW,222,0.0,7.0,95,0.00,,---,0.07,VWS V14.01,2013-03-12 16:00:00,
2013-03-12 12:04:00,67.4,65.9,29.81,SW,216,0.0,5.0,95,0.00,,---,0.07,VWS V14.01,2013-03-12 16:04:00,
2013-03-12 12:09:00,67.6,65.8,29.81,WSW,256,0.0,7.0,94,0.00,,---,0.07,VWS V14.01,2013-03-12 16:09:00,
2013-03-12 12:14:00,67.8,66.0,29.81,West,280,1.0,7.0,94,0.00,,---,0.07,VWS V14.01,2013-03-12 16:14:00,
2013-03-12 12:19:00,67.8,66.0,29.82,SW,229,11.0,11.0,94,0.00,,---,0.07,VWS V14.01,2013-03-12 16:19:00,
2013-03-12 12:24:00,67.8,65.7,29.82,SSW,195,0.0,11.0,93,0.00,,---,0.07,VWS V14.01,2013-03-12 16:24:00,
2013-03-12 12:29:00,67.9,65.8,29.82,WSW,241,0.0,11.0,93,0.00,,---,0.07,VWS V14.01,2013-03-12 16:29:00,
2013-03-12 12:30:00,67.9,65.8,29.81,ESE,104,0.0,11.0,93,0.00,,---,0.07,VWS V14.01,2013-03-12 16:30:00,
2013-03-12 12:34:00,67.9,65.5,29.81,SSW,210,1.0,3.0,92,0.00,,---,0.07,VWS V14.01,2013-03-12 16:34:00,
2013-03-12 12:39:00,68.1,65.7,29.81,ESE,121,0.0,5.0,92,0.00,,---,0.07,VWS V14.01,2013-03-12 16:39:00,
2013-03-12 12:44:00,68.1,65.7,29.82,SSW,193,0.0,5.0,92,0.00,,---,0.07,VWS V14.01,2013-03-12 16:44:00,
2013-03-12 12:49:00,68.3,65.9,29.82,SW,233,0.0,6.0,92,0.00,,---,0.07,VWS V14.01,2013-03-12 16:49:00,
2013-03-12 12:54:00,68.4,66.0,29.82,SW,232,0.0,6.0,92,0.00,,---,0.07,VWS V14.01,2013-03-12 16:54:00,
2013-03-12 12:59:00,68.4,66.0,29.82,SW,232,0.0,6.0,92,0.00,,---,0.07,VWS V14.01,2013-03-12 16:59:00,
2013-03-12 13:00:00,68.4,66.0,29.82,SW,224,1.0,6.0,92,0.00,,---,0.07,VWS V14.01,2013-03-12 17:00:00,
2013-03-12 13:04:00,68.4,66.0,29.82,West,261,0.0,3.0,92,0.00,,---,0.07,VWS V14.01,2013-03-12 17:04:00,
2013-03-12 13:10:00,68.6,66.2,29.82,SW,233,0.0,5.0,92,0.00,,---,0.07,VWS V14.01,2013-03-12 17:10:00,
2013-03-12 13:15:00,68.3,65.6,29.82,SW,236,0.0,5.0,91,0.00,,---,0.07,VWS V14.01,2013-03-12 17:15:00,
2013-03-12 13:20:00,67.1,64.1,29.82,West,275,0.0,5.0,90,0.00,,---,0.07,VWS V14.01,2013-03-12 17:20:00,
2013-03-12 13:25:00,66.4,63.4,29.82,West,270,0.0,5.0,90,0.00,,---,0.07,VWS V14.01,2013-03-12 17:25:00,
2013-03-12 13:30:00,65.6,62.9,29.82,West,267,0.0,5.0,91,0.00,,---,0.07,VWS V14.01,2013-03-12 17:30:00,
2013-03-12 13:35:00,65.3,62.6,29.82,East,90,0.0,8.0,91,0.00,,---,0.07,VWS V14.01,2013-03-12 17:35:00,
2013-03-12 13:40:00,65.3,62.9,29.82,North,357,0.0,8.0,92,0.00,,---,0.07,VWS V14.01,2013-03-12 17:40:00,
2013-03-12 13:45:00,65.3,62.9,29.82,SSW,210,0.0,8.0,92,0.00,,---,0.07,VWS V14.01,2013-03-12 17:45:00,
2013-03-12 13:50:00,65.3,62.3,29.82,WSW,243,0.0,8.0,90,0.00,,---,0.07,VWS V14.01,2013-03-12 17:50:00,
2013-03-12 13:55:00,65.5,62.5,29.82,SW,236,0.0,8.0,90,0.00,,---,0.07,VWS V14.01,2013-03-12 17:55:00,
2013-03-12 14:00:00,65.6,62.3,29.81,WSW,237,1.0,1.0,89,0.00,,---,0.07,VWS V14.01,2013-03-12 18:00:00,
2013-03-12 14:05:00,65.6,62.3,29.81,WSW,254,0.0,6.0,89,0.00,,---,0.07,VWS V14.01,2013-03-12 18:05:00,
2013-03-12 14:10:00,65.8,62.2,29.81,SW,233,0.0,6.0,88,0.00,,---,0.07,VWS V14.01,2013-03-12 18:10:00,
2013-03-12 14:15:00,66.0,62.3,29.81,SW,222,0.0,6.0,88,0.00,,---,0.07,VWS V14.01,2013-03-12 18:15:00,
2013-03-12 14:20:00,66.0,62.0,29.81,SSW,196,0.0,7.0,87,0.00,,---,0.07,VWS V14.01,2013-03-12 18:20:00,
2013-03-12 14:25:00,66.1,62.1,29.81,SW,219,0.0,7.0,87,0.00,,---,0.07,VWS V14.01,2013-03-12 18:25:00,
2013-03-12 14:30:00,66.3,62.0,29.80,SW,216,0.0,0.0,86,0.00,,---,0.07,VWS V14.01,2013-03-12 18:30:00,
2013-03-12 14:35:00,66.4,62.1,29.80,SW,217,0.0,0.0,86,0.00,,---,0.07,VWS V14.01,2013-03-12 18:35:00,
2013-03-12 14:40:00,66.9,62.6,29.80,WSW,239,0.0,3.0,86,0.00,,---,0.07,VWS V14.01,2013-03-12 18:40:00,
2013-03-12 14:46:00,67.3,62.6,29.80,South,188,0.0,6.0,85,0.00,,---,0.07,VWS V14.01,2013-03-12 18:46:00,
2013-03-12 14:51:00,67.8,62.5,29.80,WSW,237,2.0,6.0,83,0.00,,---,0.07,VWS V14.01,2013-03-12 18:51:00,
2013-03-12 14:56:00,68.3,62.6,29.80,SSW,209,0.0,8.0,82,0.00,,---,0.07,VWS V14.01,2013-03-12 18:56:00,
2013-03-12 15:00:00,69.1,62.7,29.79,WSW,256,0.0,8.0,80,0.00,,---,0.07,VWS V14.01,2013-03-12 19:00:00,
2013-03-12 15:01:00,69.3,63.2,29.79,WSW,256,0.0,0.0,81,0.00,,---,0.07,VWS V14.01,2013-03-12 19:01:00,
2013-03-12 15:06:00,70.1,62.9,29.79,SE,145,0.0,7.0,78,0.00,,---,0.07,VWS V14.01,2013-03-12 19:06:00,
2013-03-12 15:11:00,70.6,63.8,29.79,West,264,0.0,7.0,79,0.00,,---,0.07,VWS V14.01,2013-03-12 19:11:00,
2013-03-12 15:16:00,71.6,64.0,29.78,South,189,0.0,7.0,77,0.00,,---,0.07,VWS V14.01,2013-03-12 19:16:00,
2013-03-12 15:21:00,72.1,63.4,29.78,SW,229,0.0,7.0,74,0.00,,---,0.07,VWS V14.01,2013-03-12 19:21:00,
2013-03-12 15:26:00,72.3,63.6,29.78,SW,217,0.0,7.0,74,0.00,,---,0.07,VWS V14.01,2013-03-12 19:26:00,
2013-03-12 15:30:00,73.0,64.2,29.78,SSW,212,0.0,7.0,74,0.00,,---,0.07,VWS V14.01,2013-03-12 19:30:00,
2013-03-12 15:32:00,73.3,63.7,29.78,SSW,205,0.0,4.0,72,0.00,,---,0.07,VWS V14.01,2013-03-12 19:32:00,
2013-03-12 15:37:00,73.7,63.7,29.78,WSW,239,0.0,6.0,71,0.00,,---,0.07,VWS V14.01,2013-03-12 19:37:00,
2013-03-12 15:42:00,74.2,63.8,29.78,WSW,257,0.0,6.0,70,0.00,,---,0.07,VWS V14.01,2013-03-12 19:42:00,
2013-03-12 15:47:00,73.9,63.9,29.78,West,261,0.0,6.0,71,0.00,,---,0.07,VWS V14.01,2013-03-12 19:47:00,
2013-03-12 15:52:00,73.2,63.6,29.78,WSW,237,0.0,7.0,72,0.00,,---,0.07,VWS V14.01,2013-03-12 19:52:00,
2013-03-12 15:57:00,72.8,63.7,29.78,SW,222,0.0,7.0,73,0.00,,---,0.07,VWS V14.01,2013-03-12 19:57:00,
2013-03-12 16:00:00,72.7,63.9,29.78,SW,223,5.0,7.0,74,0.00,,---,0.07,VWS V14.01,2013-03-12 20:00:00,
2013-03-12 16:02:00,72.5,63.8,29.78,SW,224,0.0,5.0,74,0.00,,---,0.07,VWS V14.01,2013-03-12 20:02:00,
2013-03-12 16:07:00,72.1,63.8,29.78,SW,227,0.0,6.0,75,0.00,,---,0.07,VWS V14.01,2013-03-12 20:07:00,
2013-03-12 16:13:00,72.0,63.3,29.78,SSW,198,0.0,6.0,74,0.00,,---,0.07,VWS V14.01,2013-03-12 20:13:00,
2013-03-12 16:18:00,71.6,63.3,29.78,SW,232,3.0,6.0,75,0.00,,---,0.07,VWS V14.01,2013-03-12 20:18:00,
2013-03-12 16:23:00,71.5,62.8,29.78,WSW,237,0.0,10.0,74,0.00,,---,0.07,VWS V14.01,2013-03-12 20:23:00,
2013-03-12 16:28:00,71.1,62.4,29.78,WSW,241,0.0,11.0,74,0.00,,---,0.07,VWS V14.01,2013-03-12 20:28:00,
2013-03-12 16:30:00,71.3,63.0,29.79,SSE,168,0.0,11.0,75,0.00,,---,0.07,VWS V14.01,2013-03-12 20:30:00,
2013-03-12 16:33:00,71.3,62.6,29.79,SW,220,0.0,0.0,74,0.00,,---,0.07,VWS V14.01,2013-03-12 20:33:00,
2013-03-12 16:38:00,70.9,62.2,29.79,NNW,329,1.0,11.0,74,0.00,,---,0.07,VWS V14.01,2013-03-12 20:38:00,
2013-03-12 16:43:00,69.9,61.2,29.79,WNW,282,0.0,11.0,74,0.00,,---,0.07,VWS V14.01,2013-03-12 20:43:00,
2013-03-12 16:48:00,69.1,60.8,29.79,SW,224,0.0,11.0,75,0.00,,---,0.07,VWS V14.01,2013-03-12 20:48:00,
2013-03-12 16:53:00,68.9,61.0,29.79,SW,215,0.0,11.0,76,0.00,,---,0.07,VWS V14.01,2013-03-12 20:53:00,
2013-03-12 16:58:00,68.4,60.2,29.79,WSW,253,11.0,11.0,75,0.00,,---,0.07,VWS V14.01,2013-03-12 20:58:00,
2013-03-12 17:00:00,68.3,60.5,29.80,SSW,196,0.0,11.0,76,0.00,,---,0.07,VWS V14.01,2013-03-12 21:00:00,
2013-03-12 17:03:00,67.9,60.1,29.80,WSW,247,6.0,6.0,76,0.00,,---,0.07,VWS V14.01,2013-03-12 21:03:00,
2013-03-12 17:08:00,67.9,60.1,29.80,SE,138,0.0,6.0,76,0.00,,---,0.07,VWS V14.01,2013-03-12 21:08:00,
2013-03-12 17:13:00,68.3,59.7,29.80,West,274,0.0,6.0,74,0.00,,---,0.07,VWS V14.01,2013-03-12 21:13:00,
2013-03-12 17:18:00,67.6,59.0,29.80,WSW,240,1.0,10.0,74,0.00,,---,0.07,VWS V14.01,2013-03-12 21:18:00,
2013-03-12 17:23:00,67.3,59.1,29.80,SW,236,0.0,10.0,75,0.00,,---,0.07,VWS V14.01,2013-03-12 21:23:00,
2013-03-12 17:29:00,67.3,58.7,29.80,West,268,0.0,10.0,74,0.00,,---,0.07,VWS V14.01,2013-03-12 21:29:00,
2013-03-12 17:30:00,67.3,58.7,29.80,West,268,0.0,10.0,74,0.00,,---,0.07,VWS V14.01,2013-03-12 21:30:00,
2013-03-12 17:34:00,67.3,58.7,29.80,SSW,210,0.0,0.0,74,0.00,,---,0.07,VWS V14.01,2013-03-12 21:34:00,
2013-03-12 17:39:00,67.1,58.9,29.80,WSW,241,0.0,3.0,75,0.00,,---,0.07,VWS V14.01,2013-03-12 21:39:00,
2013-03-12 17:44:00,66.9,58.7,29.80,WSW,250,0.0,3.0,75,0.00,,---,0.07,VWS V14.01,2013-03-12 21:44:00,
2013-03-12 17:49:00,66.8,58.6,29.81,WSW,237,3.0,6.0,75,0.00,,---,0.07,VWS V14.01,2013-03-12 21:49:00,
2013-03-12 17:54:00,66.6,58.1,29.81,SW,220,0.0,6.0,74,0.00,,---,0.07,VWS V14.01,2013-03-12 21:54:00,
2013-03-12 17:59:00,66.8,58.6,29.81,WNW,282,1.0,6.0,75,0.00,,---,0.07,VWS V14.01,2013-03-12 21:59:00,
2013-03-12 18:00:00,66.8,58.3,29.81,West,281,0.0,7.0,74,0.00,,---,0.07,VWS V14.01,2013-03-12 22:00:00,
2013-03-12 18:04:00,66.8,58.3,29.81,WSW,257,0.0,2.0,74,0.00,,---,0.07,VWS V14.01,2013-03-12 22:04:00,
2013-03-12 18:09:00,66.8,58.3,29.81,WSW,257,2.0,2.0,74,0.00,,---,0.07,VWS V14.01,2013-03-12 22:09:00,
2013-03-12 18:14:00,66.8,58.6,29.81,SW,220,0.0,7.0,75,0.00,,---,0.07,VWS V14.01,2013-03-12 22:14:00,
2013-03-12 18:19:00,66.6,58.4,29.81,SW,220,0.0,7.0,75,0.00,,---,0.07,VWS V14.01,2013-03-12 22:19:00,
2013-03-12 18:24:00,66.4,57.5,29.81,SW,223,0.0,7.0,73,0.00,,---,0.07,VWS V14.01,2013-03-12 22:24:00,
2013-03-12 18:29:00,66.3,57.8,29.81,SW,223,0.0,7.0,74,0.00,,---,0.07,VWS V14.01,2013-03-12 22:29:00,
2013-03-12 18:30:00,66.3,57.8,29.81,SW,223,0.0,7.0,74,0.00,,---,0.07,VWS V14.01,2013-03-12 22:30:00,
2013-03-12 18:34:00,66.1,57.6,29.81,South,172,0.0,0.0,74,0.00,,---,0.07,VWS V14.01,2013-03-12 22:34:00,
2013-03-12 18:39:00,65.8,57.7,29.81,SW,226,0.0,1.0,75,0.00,,---,0.07,VWS V14.01,2013-03-12 22:39:00,
2013-03-12 18:44:00,65.6,57.5,29.81,SW,220,0.0,1.0,75,0.00,,---,0.07,VWS V14.01,2013-03-12 22:44:00,
2013-03-12 18:49:00,65.5,57.7,29.81,WSW,241,0.0,3.0,76,0.00,,---,0.07,VWS V14.01,2013-03-12 22:49:00,
2013-03-12 18:55:00,65.2,57.5,29.81,WSW,244,0.0,3.0,76,0.00,,---,0.07,VWS V14.01,2013-03-12 22:55:00,
2013-03-12 19:00:00,65.0,57.6,29.82,WSW,244,0.0,3.0,77,0.00,,---,0.07,VWS V14.01,2013-03-12 23:00:00,
2013-03-12 19:05:00,64.7,57.3,29.82,WSW,247,0.0,3.0,77,0.00,,---,0.07,VWS V14.01,2013-03-12 23:05:00,
2013-03-12 19:09:00,64.3,57.0,29.82,WSW,256,0.0,9.0,77,0.00,,---,0.07,VWS V14.01,2013-03-12 23:09:00,
2013-03-12 19:15:00,63.7,56.7,29.83,SW,223,0.0,9.0,78,0.00,,---,0.07,VWS V14.01,2013-03-12 23:15:00,
2013-03-12 19:20:00,63.2,56.9,29.83,WSW,237,0.0,9.0,80,0.00,,---,0.07,VWS V14.01,2013-03-12 23:20:00,
2013-03-12 19:25:00,62.6,56.7,29.83,WSW,239,0.0,9.0,81,0.00,,---,0.07,VWS V14.01,2013-03-12 23:25:00,
2013-03-12 19:30:00,62.3,56.7,29.83,SW,234,0.0,9.0,82,0.00,,---,0.07,VWS V14.01,2013-03-12 23:30:00,
2013-03-12 19:35:00,62.0,56.8,29.83,SW,223,3.0,3.0,83,0.00,,---,0.07,VWS V14.01,2013-03-12 23:35:00,
2013-03-12 19:40:00,61.5,56.3,29.83,SW,215,0.0,7.0,83,0.00,,---,0.07,VWS V14.01,2013-03-12 23:40:00,
2013-03-12 19:45:00,61.2,56.3,29.83,WSW,258,0.0,7.0,84,0.00,,---,0.07,VWS V14.01,2013-03-12 23:45:00,
2013-03-12 19:50:00,60.9,56.4,29.83,WSW,258,0.0,7.0,85,0.00,,---,0.07,VWS V14.01,2013-03-12 23:50:00,
2013-03-12 19:55:00,60.7,56.2,29.83,WSW,258,0.0,7.0,85,0.00,,---,0.07,VWS V14.01,2013-03-12 23:55:00,
2013-03-12 20:00:00,60.5,56.3,29.84,WSW,258,0.0,0.0,86,0.00,,---,0.07,VWS V14.01,2013-03-13 00:00:00,
2013-03-12 20:05:00,60.4,56.2,29.84,SW,236,0.0,0.0,86,0.00,,---,0.07,VWS V14.01,2013-03-13 00:05:00,
2013-03-12 20:11:00,60.2,56.3,29.84,SW,230,0.0,0.0,87,0.00,,---,0.07,VWS V14.01,2013-03-13 00:11:00,
2013-03-12 20:16:00,59.9,55.7,29.85,SW,230,0.0,0.0,86,0.00,,---,0.07,VWS V14.01,2013-03-13 00:16:00,
2013-03-12 20:21:00,59.8,55.9,29.85,SW,230,0.0,0.0,87,0.00,,---,0.07,VWS V14.01,2013-03-13 00:21:00,
2013-03-12 20:26:00,59.6,55.7,29.85,SW,230,0.0,0.0,87,0.00,,---,0.07,VWS V14.01,2013-03-13 00:26:00,
2013-03-12 20:30:00,59.5,55.6,29.86,SW,230,0.0,0.0,87,0.00,,---,0.07,VWS V14.01,2013-03-13 00:30:00,
2013-03-12 20:31:00,59.5,55.6,29.86,SW,230,0.0,0.0,87,0.00,,---,0.07,VWS V14.01,2013-03-13 00:31:00,
2013-03-12 20:36:00,59.2,55.7,29.86,SW,230,0.0,0.0,88,0.00,,---,0.07,VWS V14.01,2013-03-13 00:36:00,
2013-03-12 20:41:00,58.9,55.0,29.86,SW,230,0.0,0.0,87,0.00,,---,0.07,VWS V14.01,2013-03-13 00:41:00,
2013-03-12 20:47:00,58.7,55.2,29.86,SW,230,0.0,0.0,88,0.00,,---,0.07,VWS V14.01,2013-03-13 00:47:00,
2013-03-12 20:52:00,58.6,55.1,29.86,SW,230,0.0,0.0,88,0.00,,---,0.07,VWS V14.01,2013-03-13 00:52:00,
2013-03-12 20:57:00,58.4,54.9,29.86,SW,232,0.0,3.0,88,0.00,,---,0.07,VWS V14.01,2013-03-13 00:57:00,
2013-03-12 21:00:00,58.4,55.2,29.87,SW,232,0.0,3.0,89,0.00,,---,0.07,VWS V14.01,2013-03-13 01:00:00,
2013-03-12 21:02:00,58.4,55.2,29.87,SW,232,0.0,0.0,89,0.00,,---,0.07,VWS V14.01,2013-03-13 01:02:00,
2013-03-12 21:07:00,58.4,55.2,29.87,SW,236,0.0,3.0,89,0.00,,---,0.07,VWS V14.01,2013-03-13 01:07:00,
2013-03-12 21:12:00,58.3,55.1,29.87,WSW,253,0.0,5.0,89,0.00,,---,0.07,VWS V14.01,2013-03-13 01:12:00,
2013-03-12 21:17:00,58.3,55.1,29.87,WSW,253,0.0,5.0,89,0.00,,---,0.07,VWS V14.01,2013-03-13 01:17:00,
2013-03-12 21:22:00,58.1,54.9,29.87,WSW,253,0.0,5.0,89,0.00,,---,0.07,VWS V14.01,2013-03-13 01:22:00,
2013-03-12 21:27:00,58.0,54.8,29.87,WSW,253,0.0,5.0,89,0.00,,---,0.07,VWS V14.01,2013-03-13 01:27:00,
2013-03-12 21:30:00,57.8,54.6,29.89,WSW,253,0.0,5.0,89,0.00,,---,0.07,VWS V14.01,2013-03-13 01:30:00,
2013-03-12 21:32:00,57.8,54.6,29.89,WSW,253,0.0,0.0,89,0.00,,---,0.07,VWS V14.01,2013-03-13 01:32:00,
2013-03-12 21:37:00,57.8,54.9,29.89,WSW,253,0.0,0.0,90,0.00,,---,0.07,VWS V14.01,2013-03-13 01:37:00,
2013-03-12 21:42:00,57.8,54.9,29.89,WSW,253,0.0,0.0,90,0.00,,---,0.07,VWS V14.01,2013-03-13 01:42:00,
2013-03-12 21:48:00,57.8,54.9,29.89,WSW,253,0.0,0.0,90,0.00,,---,0.07,VWS V14.01,2013-03-13 01:48:00,
2013-03-12 21:53:00,57.8,54.9,29.89,WSW,253,0.0,0.0,90,0.00,,---,0.07,VWS V14.01,2013-03-13 01:53:00,
2013-03-12 21:58:00,57.8,54.9,29.89,WSW,247,0.0,1.0,90,0.00,,---,0.07,VWS V14.01,2013-03-13 01:58:00,
2013-03-12 22:00:00,57.8,55.2,29.89,WSW,247,0.0,1.0,91,0.00,,---,0.07,VWS V14.01,2013-03-13 02:00:00,
2013-03-12 22:03:00,58.0,55.4,29.89,WSW,247,0.0,0.0,91,0.00,,---,0.07,VWS V14.01,2013-03-13 02:03:00,
2013-03-12 22:08:00,58.0,55.4,29.89,WSW,247,0.0,0.0,91,0.00,,---,0.07,VWS V14.01,2013-03-13 02:08:00,
2013-03-12 22:13:00,58.0,55.4,29.89,WSW,247,0.0,0.0,91,0.00,,---,0.07,VWS V14.01,2013-03-13 02:13:00,
2013-03-12 22:18:00,58.0,55.4,29.89,WSW,247,0.0,0.0,91,0.00,,---,0.07,VWS V14.01,2013-03-13 02:18:00,
2013-03-12 22:23:00,57.8,55.2,29.89,WSW,247,0.0,0.0,91,0.00,,---,0.07,VWS V14.01,2013-03-13 02:23:00,
2013-03-12 22:28:00,57.6,55.0,29.89,WSW,247,0.0,0.0,91,0.00,,---,0.07,VWS V14.01,2013-03-13 02:28:00,
2013-03-12 22:30:00,57.6,55.0,29.90,WSW,247,0.0,0.0,91,0.00,,---,0.07,VWS V14.01,2013-03-13 02:30:00,
2013-03-12 22:34:00,57.5,55.2,29.90,WSW,247,0.0,0.0,92,0.00,,---,0.07,VWS V14.01,2013-03-13 02:34:00,
2013-03-12 22:39:00,57.3,55.0,29.90,WSW,247,0.0,0.0,92,0.00,,---,0.07,VWS V14.01,2013-03-13 02:39:00,
2013-03-12 22:44:00,57.2,54.9,29.90,WSW,247,0.0,0.0,92,0.00,,---,0.07,VWS V14.01,2013-03-13 02:44:00,
2013-03-12 22:49:00,57.0,54.7,29.90,WSW,247,0.0,0.0,92,0.00,,---,0.07,VWS V14.01,2013-03-13 02:49:00,
2013-03-12 22:54:00,56.9,54.6,29.90,WSW,247,0.0,0.0,92,0.00,,---,0.07,VWS V14.01,2013-03-13 02:54:00,
2013-03-12 22:59:00,56.6,54.3,29.90,WSW,247,0.0,0.0,92,0.00,,---,0.07,VWS V14.01,2013-03-13 02:59:00,
2013-03-12 23:00:00,56.6,54.3,29.90,WSW,247,0.0,0.0,92,0.00,,---,0.07,VWS V14.01,2013-03-13 03:00:00,
2013-03-12 23:04:00,56.5,54.2,29.90,WSW,247,0.0,0.0,92,0.00,,---,0.07,VWS V14.01,2013-03-13 03:04:00,
2013-03-12 23:09:00,56.3,54.0,29.90,WSW,247,0.0,0.0,92,0.00,,---,0.07,VWS V14.01,2013-03-13 03:09:00,
2013-03-12 23:14:00,56.2,53.9,29.91,WSW,247,0.0,0.0,92,0.00,,---,0.07,VWS V14.01,2013-03-13 03:14:00,
2013-03-12 23:19:00,55.9,53.6,29.91,WSW,247,0.0,0.0,92,0.00,,---,0.07,VWS V14.01,2013-03-13 03:19:00,
2013-03-12 23:25:00,55.7,53.7,29.91,WSW,247,0.0,0.0,93,0.00,,---,0.07,VWS V14.01,2013-03-13 03:25:00,
2013-03-12 23:30:00,55.6,53.6,29.91,WSW,247,0.0,0.0,93,0.00,,---,0.07,VWS V14.01,2013-03-13 03:30:00,
2013-03-12 23:35:00,55.4,53.4,29.91,WSW,247,0.0,0.0,93,0.00,,---,0.07,VWS V14.01,2013-03-13 03:35:00,
2013-03-12 23:40:00,55.3,53.3,29.91,WSW,247,0.0,0.0,93,0.00,,---,0.07,VWS V14.01,2013-03-13 03:40:00,
2013-03-12 23:45:00,55.1,53.1,29.92,WSW,247,0.0,0.0,93,0.00,,---,0.07,VWS V14.01,2013-03-13 03:45:00,
2013-03-12 23:50:00,55.0,53.0,29.92,WSW,247,0.0,0.0,93,0.00,,---,0.07,VWS V14.01,2013-03-13 03:50:00,
2013-03-12 23:55:00,54.8,52.8,29.92,WSW,247,0.0,0.0,93,0.00,,---,0.07,VWS V14.01,2013-03-13 03:55:00,